Flag Weather past 2 weeks in Sindelfingen, Baden-Württemberg, Germany

Now
45 °F

Light fog.


Feels Like: 45 °F
Forecast: 49 / 64 °F
Wind: 1 mph from South

Location: Stuttgart-Echterdingen

Current Time: Oct 31, 2014 at 5:12:17 AM

Latest Report: Oct 31, 2014 at 4:50 AM


Visibility: 4 mi

Pressure: 30.30 "Hg

Humidity: 100%

Dew point: 45 °F

Location of SindelfingenLocation

Historic Weather in Sindelfingen — Graph

°F

Sindelfingen temperature yesterday

Maximum temperature yesterday: 57 °F (at 1:50 PM)
Minimum temperature yesterday: 45 °F (at 12:20 AM)
Average temperature yesterday: 50 °F

Past Weeks' High & Low Weather Summary

 TemperatureHumidityPressure
High75 °F (Oct 19, 3:20 PM)100% (Oct 17, 5:50 AM)30.33 "Hg (Oct 17, 5:50 AM)
Low36 °F (Oct 28, 12:20 AM)50% (Oct 19, 3:50 PM)29.65 "Hg (Oct 21, 6:20 PM)
Average51 °F86%30.12 "Hg
* Reported Oct 16 4:20 AM — Oct 31 3:50 AM, Sindelfingen, Weather by CustomWeather, © 2014

Note: Actual official high and low records may vary slightly from our data, if they occured in-between our weather recording intervals... More about our weather records

Advertising

Sindelfingen weather history for previous 24 hours

 ConditionsComfort  
Time TempWeatherWind HumidityBarometerVisibility
3:50 AM
Oct 31
43 °FSleet. Light fog.1 mph100%30.30 "Hg4 mi
3:20 AM43 °FSleet. Overcast.2 mph100%30.30 "Hg4 mi
2:50 AM45 °FSleet. Overcast.2 mph100%30.30 "Hg3 mi
2:20 AM45 °FSleet. Overcast.1 mph100%30.30 "Hg4 mi
1:50 AM43 °FSleet. Overcast.2 mph100%30.33 "Hg5 mi
1:20 AM45 °FSleet. Overcast.1 mph100%30.30 "Hg5 mi
12:50 AM45 °FSleet. Overcast.1 mph100%30.30 "Hg3 mi
12:20 AM46 °FSleet. Overcast.1 mph100%30.30 "Hg2 mi
11:50 PM
Oct 30
45 °FSleet. Fog.1 mph100%30.30 "Hg4 mi
11:20 PM46 °FSleet. Fog.3 mph100%30.33 "Hg4 mi
10:50 PM46 °FSleet. Fog.1 mph93%30.30 "Hg4 mi
10:20 PM48 °FSleet. Fog.2 mph100%30.30 "Hg4 mi
9:50 PM48 °FSleet. Fog.1 mph94%30.30 "Hg5 mi
9:20 PM48 °FFog.2 mph94%30.30 "Hg6 mi
8:50 PM50 °FPassing clouds.1 mph94%30.30 "HgN/A
8:20 PM50 °FClear.1 mph94%30.30 "Hg10 mi
7:50 PM50 °FClear.1 mph94%30.30 "Hg10 mi
7:20 PM52 °FClear.2 mph94%30.30 "Hg10 mi
6:50 PM52 °FClear.1 mph94%30.30 "Hg10 mi
6:20 PM52 °FClear.1 mph94%30.30 "Hg10 mi
5:50 PM52 °FPassing clouds.1 mph88%30.30 "HgN/A
5:20 PM54 °FPartly cloudy.2 mph82%30.30 "HgN/A
4:50 PM55 °FBroken clouds.2 mph82%30.27 "HgN/A
4:20 PM57 °FPartly sunny.2 mph82%30.27 "HgN/A
3:50 PM57 °FPartly sunny.2 mph77%30.27 "HgN/A
3:20 PM57 °FPartly sunny.2 mph77%30.27 "HgN/A
2:50 PM57 °FPartly sunny.2 mph77%30.27 "HgN/A
2:20 PM57 °FPartly sunny.2 mph77%30.27 "HgN/A
1:50 PM57 °FPartly sunny.3 mph77%30.27 "HgN/A
1:20 PM55 °FPartly sunny.2 mph88%30.27 "HgN/A
12:50 PM55 °FPartly sunny.1 mph82%30.27 "HgN/A
12:20 PM55 °FPartly sunny.1 mph88%30.27 "HgN/A
11:50 AM54 °FPartly sunny.2 mph88%30.27 "HgN/A
11:20 AM52 °FPartly sunny.1 mph94%30.27 "Hg6 mi
10:50 AM52 °FPartly sunny.2 mph94%30.27 "Hg5 mi
10:20 AM50 °FPartly sunny.2 mph94%30.27 "Hg5 mi
9:50 AM50 °FPartly sunny.1 mph94%30.27 "Hg4 mi
9:20 AM48 °FPartly sunny.2 mph100%30.27 "Hg4 mi
8:50 AM48 °FPartly sunny.2 mph100%30.24 "Hg4 mi
8:20 AM48 °FFog.2 mph100%30.24 "Hg3 mi
7:50 AM48 °FPartly sunny.2 mph100%30.24 "Hg4 mi
7:20 AM48 °FPartly sunny.1 mph100%30.21 "Hg4 mi
6:50 AM48 °FPassing clouds.1 mph100%30.21 "Hg5 mi
6:20 AM48 °FPassing clouds.2 mph100%30.21 "Hg5 mi
5:50 AM46 °FFog.2 mph100%30.21 "Hg2 mi
5:20 AM46 °FDrizzle. Overcast.3 mph100%30.18 "Hg2 mi
Weather by CustomWeather, © 2014

See weather overviewHow to use our weather pages